Terminal Aerodrome Forecast
Issued by NWS

Home | Current Version | Previous Version | Text Only | Print | Product List | Glossary On
Versions: 1 2 3 4 5 6 7 8 9 10 11 12 13 14 15 16 17 18 19
000
FTUS43 KFGF 231700
TAFTVF
TAF
KTVF 231722Z 2318/2418 18013G20KT P6SM SCT250
     FM240000 18015G22KT P6SM BKN070
     FM240100 17012KT P6SM BKN035
     FM240900 16010KT P6SM BKN025
      AMD LTD TO CLD VIS AND WIND=

USA.gov is the U.S. government's official web portal to all federal, state and local government web resources and services.